Preview of NWS' New Version of Forecast
This preview is not operational and should not be used for support decisions.

Regional Weather Roundup (RWR)

Issued by National Weather Service (NWS)

                            
000
ASPQ40 PGUM 170910
RWRPQ 
WEATHER ROUNDUP FOR THE MARIANAS AND MICRONESIA
NATIONAL WEATHER SERVICE TIYAN GU
700 PM CHST MON JUN 17 2019

GUZ001>004-171000-
MARIANA ISLANDS-
  
CITY           SKY/WX    TMP DP  RH WIND       PRES   REMARKS
GUAM AIRPORT   PTCLDY    84  73  70 E9        29.88R HX  91           
ANDERSEN AFB   MOCLDY    82  75  78 E9        29.89R                  
ROTA AIRPORT   PTCLDY    82  73  74 E12       29.87R                  
TINIAN AP      PTCLDY    84  75  74 E6        29.86R HX  92           
SAIPAN AP      PTCLDY    82  75  78 E8        29.88R                  

$$

PMZ161-171000-
REPUBLIC OF PALAU-
  
CITY           SKY/WX    TMP DP  RH WIND       PRES   REMARKS
KOROR AP       MOCLDY    81  75  83 NE6       29.81R                  
KOROR WSO      NOT AVBL                                               

$$

PMZ171>174-171000-
FEDERATED STATES OF MICRONESIA-
  
CITY           SKY/WX    TMP DP  RH WIND       PRES   REMARKS
YAP AIRPORT    MOCLDY    86  79  79 VRB3      29.79R HX  99           
CHUUK AP       MOCLDY    82  77  83 VRB6      29.80R HX  91           
POHNPEI AP     NOT AVBL                                               
POHNPEI WSO    CLOUDY    81  75  83 E3        29.84R                  
KOSRAE AP      NOT AVBL                                               

$$

PMZ181-171000-
REPUBLIC OF THE MARSHALL ISLANDS-
  
CITY           SKY/WX    TMP DP  RH WIND       PRES   REMARKS
KWAJALEIN AP   PTCLDY    82  75  78 NE13      29.86R                  
MAJURO AP      MOCLDY    84  77  79 NE14      29.82R HX  94           
MAJURO WSO     CLOUDY    82  75  78 E12       29.82R                  

$$